BOX459 KATL-EDDF

Flight info

Callsign BOX459
Flight time N/A
Altitude 33000
Route JACCC2 KELLN Q58 GLOVR DCT RDU DCT ORF AR9 ZIBUT DCT LARGE DCT JENYY/N0488F350 DCT DOVEY/M085F350 NATW ATSUR/M084F370 DCT ARKIL/N0481F370 DCT OXLOW DCT KONAN DCT KOK DCT REMBA DCT SPI T180 NIVNU T847 IMCOM IMCOM1A
Aircraft B77L/H-SDE2E3GHIJ4J5M1P2RWXYZ/LB1D1

Departure

Time 2026-05-05 01:19
Airport Hartsfield Jackson Atlanta International Airport (KATL)

Arrival

Time N/A
Airport Frankfurt Main Airport (EDDF)
Time Latitude Longitude Altitude Speed Heading
2026-05-05 00:20 33.62602 -84.42955 1040 ft 0 kts 270°
2026-05-05 01:01 33.62602 -84.42931 1040 ft 4 kts 269°
2026-05-05 01:01 33.62602 -84.42899 1040 ft 4 kts 271°
2026-05-05 01:02 33.62600 -84.42867 1040 ft 4 kts 289°
2026-05-05 01:02 33.62589 -84.42847 1040 ft 2 kts 356°
2026-05-05 01:02 33.62587 -84.42847 1040 ft 1 kts 359°
2026-05-05 01:05 33.62593 -84.42847 1040 ft 4 kts 359°
2026-05-05 01:06 33.62641 -84.42848 1040 ft 8 kts 359°
2026-05-05 01:06 33.62695 -84.42848 1040 ft 8 kts 359°
2026-05-05 01:06 33.62750 -84.42849 1040 ft 8 kts 359°
2026-05-05 01:06 33.62805 -84.42848 1040 ft 8 kts
2026-05-05 01:07 33.62860 -84.42849 1040 ft 8 kts
2026-05-05 01:07 33.62914 -84.42851 1040 ft 8 kts 355°
2026-05-05 01:07 33.62963 -84.42876 1040 ft 8 kts 309°
2026-05-05 01:07 33.62998 -84.42925 1040 ft 8 kts 334°
2026-05-05 01:08 33.63051 -84.42915 1040 ft 8 kts 32°
2026-05-05 01:08 33.63073 -84.42857 1040 ft 8 kts 83°
2026-05-05 01:08 33.63074 -84.42791 1040 ft 8 kts 90°
2026-05-05 01:08 33.63075 -84.42726 1039 ft 8 kts 89°
2026-05-05 01:09 33.63075 -84.42669 1039 ft 8 kts 90°
2026-05-05 01:09 33.63074 -84.42645 1039 ft 8 kts 90°
2026-05-05 01:09 33.63074 -84.42608 1039 ft 8 kts 90°
2026-05-05 01:09 33.63074 -84.42537 1039 ft 11 kts 90°
2026-05-05 01:10 33.63075 -84.42417 1039 ft 16 kts 90°
2026-05-05 01:10 33.63074 -84.42280 1039 ft 16 kts 90°
2026-05-05 01:10 33.63074 -84.42143 1039 ft 16 kts 90°
2026-05-05 01:10 33.63074 -84.42008 1039 ft 16 kts 90°
2026-05-05 01:11 33.63097 -84.41882 1040 ft 14 kts 37°
2026-05-05 01:11 33.63195 -84.41860 1039 ft 14 kts
2026-05-05 01:11 33.63291 -84.41831 1040 ft 14 kts 16°
2026-05-05 01:11 33.63375 -84.41802 1040 ft 11 kts 15°
2026-05-05 01:12 33.63441 -84.41781 1040 ft 9 kts 15°
2026-05-05 01:12 33.63507 -84.41771 1039 ft 10 kts 359°
2026-05-05 01:12 33.63578 -84.41778 1039 ft 10 kts 349°
2026-05-05 01:12 33.63633 -84.41779 1040 ft 7 kts 18°
2026-05-05 01:13 33.63653 -84.41757 1040 ft 1 kts 60°
2026-05-05 01:13 33.63658 -84.41730 1040 ft 10 kts 83°
2026-05-05 01:13 33.63656 -84.41595 1039 ft 17 kts 90°
2026-05-05 01:13 33.63655 -84.41466 1039 ft 14 kts 90°
2026-05-05 01:14 33.63656 -84.41358 1039 ft 12 kts 90°
2026-05-05 01:14 33.63656 -84.41273 1039 ft 9 kts 90°
2026-05-05 01:14 33.63656 -84.41210 1040 ft 6 kts 89°
2026-05-05 01:14 33.63657 -84.41124 1040 ft 18 kts 89°
2026-05-05 01:15 33.63657 -84.40961 1040 ft 19 kts 90°
2026-05-05 01:15 33.63658 -84.40828 1040 ft 12 kts 90°
2026-05-05 01:15 33.63630 -84.40759 1040 ft 7 kts 146°
2026-05-05 01:15 33.63593 -84.40750 1040 ft 3 kts 179°
2026-05-05 01:16 33.63591 -84.40750 1040 ft 0 kts 179°
2026-05-05 01:17 33.63590 -84.40750 1040 ft 1 kts 179°
2026-05-05 01:17 33.63555 -84.40748 1041 ft 10 kts 178°
2026-05-05 01:17 33.63486 -84.40756 1040 ft 10 kts 212°
2026-05-05 01:17 33.63472 -84.40864 1041 ft 24 kts 270°
2026-05-05 01:18 33.63471 -84.41266 1039 ft 81 kts 270°
2026-05-05 01:18 33.63470 -84.42198 1040 ft 140 kts 270°
2026-05-05 01:18 33.63466 -84.43572 1041 ft 187 kts 269°
2026-05-05 01:18 33.63472 -84.45184 1411 ft 194 kts 270°
2026-05-05 01:19 33.63479 -84.46847 1784 ft 202 kts 265°
2026-05-05 01:19 33.63233 -84.48450 2378 ft 194 kts 242°
2026-05-05 01:19 33.62562 -84.49925 2571 ft 211 kts 238°
2026-05-05 01:19 33.61810 -84.51549 2766 ft 235 kts 239°
2026-05-05 01:20 33.61010 -84.53356 3098 ft 251 kts 240°
2026-05-05 01:20 33.60187 -84.55229 3769 ft 256 kts 239°
2026-05-05 01:20 33.59283 -84.57035 4436 ft 255 kts 226°
2026-05-05 01:20 33.57827 -84.58221 5031 ft 259 kts 196°
2026-05-05 01:21 33.56051 -84.58442 5679 ft 256 kts 180°
2026-05-05 01:21 33.54255 -84.58443 6284 ft 262 kts 182°
2026-05-05 01:21 33.52404 -84.58459 6858 ft 268 kts 181°
2026-05-05 01:21 33.50535 -84.58464 7514 ft 271 kts 181°
2026-05-05 01:22 33.48649 -84.58311 8066 ft 276 kts 166°
2026-05-05 01:22 33.46959 -84.57171 8582 ft 287 kts 136°
2026-05-05 01:22 33.45891 -84.55149 9191 ft 294 kts 109°
2026-05-05 01:22 33.45611 -84.52755 9764 ft 298 kts 91°
2026-05-05 01:23 33.45612 -84.50243 10216 ft 307 kts 91°
2026-05-05 01:23 33.45620 -84.47605 10411 ft 328 kts 91°
2026-05-05 01:23 33.45627 -84.44789 10586 ft 349 kts 91°
2026-05-05 01:23 33.45624 -84.41789 10754 ft 371 kts 91°
2026-05-05 01:24 33.45611 -84.38638 11168 ft 384 kts 91°
2026-05-05 01:24 33.45603 -84.35404 11795 ft 390 kts 89°
2026-05-05 01:24 33.46093 -84.32194 12300 ft 399 kts 67°
2026-05-05 01:24 33.47438 -84.29304 12957 ft 399 kts 59°
2026-05-05 01:25 33.48836 -84.26396 13644 ft 406 kts 61°
2026-05-05 01:25 33.50189 -84.23414 14416 ft 408 kts 62°
2026-05-05 01:25 33.51532 -84.20397 15143 ft 413 kts 62°
2026-05-05 01:25 33.52867 -84.17382 15775 ft 418 kts 62°
2026-05-05 01:26 33.54243 -84.14278 16431 ft 424 kts 62°
2026-05-05 01:26 33.55637 -84.11139 17063 ft 430 kts 61°
2026-05-05 01:26 33.57052 -84.07956 17721 ft 435 kts 61°
2026-05-05 01:26 33.58485 -84.04735 18380 ft 440 kts 61°
2026-05-05 01:27 33.59933 -84.01477 18933 ft 445 kts 61°
2026-05-05 01:27 33.61392 -83.98196 19557 ft 448 kts 61°
2026-05-05 01:27 33.62861 -83.94885 20170 ft 451 kts 61°
2026-05-05 01:27 33.64320 -83.91597 20753 ft 454 kts 61°
2026-05-05 01:28 33.65810 -83.88233 21330 ft 458 kts 61°
2026-05-05 01:28 33.67311 -83.84841 21902 ft 462 kts 60°
2026-05-05 01:28 33.68825 -83.81416 22462 ft 466 kts 60°
2026-05-05 01:28 33.70350 -83.77963 23024 ft 470 kts 60°
2026-05-05 01:29 33.71886 -83.74482 23580 ft 474 kts 60°
2026-05-05 01:29 33.73434 -83.70971 24061 ft 477 kts 60°
2026-05-05 01:29 33.74992 -83.67432 24532 ft 480 kts 60°
2026-05-05 01:29 33.76578 -83.63885 25018 ft 483 kts 58°
2026-05-05 01:30 33.78318 -83.60420 25478 ft 485 kts 56°
2026-05-05 01:30 33.80163 -83.57013 25963 ft 488 kts 54°
2026-05-05 01:30 33.82026 -83.53655 26433 ft 490 kts 54°
2026-05-05 01:30 33.83924 -83.50228 26855 ft 494 kts 54°
2026-05-05 01:31 33.85817 -83.46768 27267 ft 497 kts 55°
2026-05-05 01:31 33.87711 -83.43266 27678 ft 501 kts 55°
2026-05-05 01:31 33.89605 -83.39730 28101 ft 504 kts 55°
2026-05-05 01:31 33.91502 -83.36172 28512 ft 507 kts 56°
2026-05-05 01:32 33.93407 -83.32589 28906 ft 510 kts 56°
2026-05-05 01:32 33.95323 -83.28981 29283 ft 513 kts 56°
2026-05-05 01:32 33.97248 -83.25354 29641 ft 515 kts 56°
2026-05-05 01:32 33.99155 -83.21762 30080 ft 516 kts 56°
2026-05-05 01:33 34.01083 -83.18128 30522 ft 514 kts 55°
2026-05-05 01:33 34.03007 -83.14497 30953 ft 514 kts 55°
2026-05-05 01:33 34.04935 -83.10856 31274 ft 516 kts 55°
2026-05-05 01:33 34.06864 -83.07209 31650 ft 516 kts 55°
2026-05-05 01:34 34.08790 -83.03564 32072 ft 514 kts 55°
2026-05-05 01:34 34.10708 -82.99930 32499 ft 513 kts 55°
2026-05-05 01:34 34.12623 -82.96301 32886 ft 512 kts 55°
2026-05-05 01:34 34.14513 -82.92704 33024 ft 517 kts 55°
2026-05-05 01:35 34.18385 -82.85295 33060 ft 523 kts 56°
2026-05-05 01:35 34.22238 -82.77890 33049 ft 518 kts 56°
2026-05-05 01:36 34.26065 -82.70529 33072 ft 517 kts 56°
2026-05-05 01:36 34.29893 -82.63157 33056 ft 518 kts 56°
2026-05-05 01:37 34.33723 -82.55764 33044 ft 518 kts 56°
2026-05-05 01:37 34.37522 -82.48415 33040 ft 519 kts 56°
2026-05-05 01:38 34.41345 -82.41005 33050 ft 519 kts 56°
2026-05-05 01:38 34.45160 -82.33584 33048 ft 519 kts 57°
2026-05-05 01:39 34.48659 -82.25915 33056 ft 520 kts 60°
2026-05-05 01:39 34.52066 -82.18245 33061 ft 520 kts 59°
2026-05-05 01:40 34.55765 -82.10712 33057 ft 519 kts 56°
2026-05-05 01:40 34.59689 -82.03373 33061 ft 518 kts 55°
2026-05-05 01:41 34.63601 -81.96037 33060 ft 517 kts 55°
2026-05-05 01:41 34.67439 -81.88712 33057 ft 517 kts 56°
2026-05-05 01:42 34.71274 -81.81321 33050 ft 517 kts 56°
2026-05-05 01:42 34.75107 -81.73916 33044 ft 518 kts 56°
2026-05-05 01:43 34.78941 -81.66500 33040 ft 518 kts 56°
2026-05-05 01:43 34.82774 -81.59073 33031 ft 518 kts 56°
2026-05-05 01:44 34.86606 -81.51636 33042 ft 519 kts 56°
2026-05-05 01:44 34.90412 -81.44233 33050 ft 519 kts 56°
2026-05-05 01:45 34.94241 -81.36768 33070 ft 520 kts 56°
2026-05-05 01:45 34.98078 -81.29274 33031 ft 521 kts 56°
2026-05-05 01:46 35.01914 -81.21762 33034 ft 522 kts 56°
2026-05-05 01:46 35.05749 -81.14237 33027 ft 523 kts 56°
2026-05-05 01:47 35.09562 -81.06742 33024 ft 523 kts 56°
2026-05-05 01:47 35.13395 -80.99188 33043 ft 523 kts 56°
2026-05-05 01:48 35.17223 -80.91626 33051 ft 524 kts 56°
2026-05-05 01:48 35.21045 -80.84063 33035 ft 524 kts 56°
2026-05-05 01:49 35.24871 -80.76475 33058 ft 524 kts 56°
2026-05-05 01:49 35.28695 -80.68875 33054 ft 524 kts 56°
2026-05-05 01:50 35.32490 -80.61314 33037 ft 524 kts 56°
2026-05-05 01:50 35.36305 -80.53698 33021 ft 524 kts 56°
2026-05-05 01:51 35.40111 -80.46081 33035 ft 524 kts 56°
2026-05-05 01:51 35.43908 -80.38465 33067 ft 523 kts 56°
2026-05-05 01:52 35.47697 -80.30852 33072 ft 522 kts 56°
2026-05-05 01:52 35.51122 -80.22988 33075 ft 524 kts 65°
2026-05-05 01:53 35.53419 -80.14604 33071 ft 520 kts 71°
2026-05-05 01:53 35.55513 -80.06112 33075 ft 520 kts 71°
2026-05-05 01:54 35.57642 -79.97626 33054 ft 520 kts 71°
2026-05-05 01:54 35.59793 -79.89148 33059 ft 520 kts 71°
2026-05-05 01:55 35.61933 -79.80713 33070 ft 521 kts 71°
2026-05-05 01:55 35.64081 -79.72209 33050 ft 521 kts 71°
2026-05-05 01:56 35.66223 -79.63693 33060 ft 521 kts 71°
2026-05-05 01:56 35.68358 -79.55170 33049 ft 522 kts 71°
2026-05-05 01:57 35.70475 -79.46696 33050 ft 522 kts 71°
2026-05-05 01:57 35.72601 -79.38156 33048 ft 522 kts 71°
2026-05-05 01:58 35.74719 -79.29618 33052 ft 522 kts 71°
2026-05-05 01:58 35.76832 -79.21075 33073 ft 522 kts 71°
2026-05-05 01:59 35.78940 -79.12522 33047 ft 522 kts 71°
2026-05-05 01:59 35.81028 -79.04019 33036 ft 522 kts 71°
2026-05-05 02:00 35.83125 -78.95452 33038 ft 522 kts 71°
2026-05-05 02:00 35.85217 -78.86877 33029 ft 523 kts 71°
2026-05-05 02:01 35.87393 -78.78333 33043 ft 522 kts 67°
2026-05-05 02:01 35.90445 -78.70326 33033 ft 519 kts 60°
2026-05-05 02:02 35.93760 -78.62417 33039 ft 519 kts 60°
2026-05-05 02:02 35.97046 -78.54479 33061 ft 520 kts 60°
2026-05-05 02:03 36.00301 -78.46503 33066 ft 520 kts 61°
2026-05-05 02:03 36.03544 -78.38502 33068 ft 521 kts 61°
2026-05-05 02:04 36.06763 -78.30547 33064 ft 521 kts 61°
2026-05-05 02:04 36.09997 -78.22541 33061 ft 521 kts 61°
2026-05-05 02:05 36.13229 -78.14522 33051 ft 521 kts 61°
2026-05-05 02:05 36.16433 -78.06555 33059 ft 521 kts 60°
2026-05-05 02:06 36.19654 -77.98524 33035 ft 521 kts 60°
2026-05-05 02:06 36.22869 -77.90491 33018 ft 520 kts 61°
2026-05-05 02:07 36.26075 -77.82455 33027 ft 520 kts 61°
2026-05-05 02:07 36.29278 -77.74409 33037 ft 521 kts 61°
2026-05-05 02:08 36.32454 -77.66410 33037 ft 521 kts 61°
2026-05-05 02:08 36.35648 -77.58346 33040 ft 521 kts 61°
2026-05-05 02:09 36.38840 -77.50270 33037 ft 521 kts 61°
2026-05-05 02:09 36.42026 -77.42185 33031 ft 522 kts 61°
2026-05-05 02:10 36.45188 -77.34140 33040 ft 522 kts 61°
2026-05-05 02:10 36.48366 -77.26037 33041 ft 522 kts 62°
2026-05-05 02:11 36.51541 -77.17918 33036 ft 522 kts 62°
2026-05-05 02:11 36.54712 -77.09791 33059 ft 522 kts 62°
2026-05-05 02:12 36.59421 -76.97680 33037 ft 519 kts 62°
2026-05-05 02:13 36.62550 -76.89606 33040 ft 517 kts 62°
2026-05-05 02:13 36.65664 -76.81553 33037 ft 516 kts 62°
2026-05-05 02:14 36.68771 -76.73500 33052 ft 516 kts 62°
2026-05-05 02:14 36.71855 -76.65483 33059 ft 517 kts 62°
2026-05-05 02:15 36.74952 -76.57410 33058 ft 516 kts 62°
2026-05-05 02:15 36.78036 -76.49349 33042 ft 514 kts 62°
2026-05-05 02:16 36.81108 -76.41303 33049 ft 514 kts 62°
2026-05-05 02:16 36.84158 -76.33292 33021 ft 515 kts 62°
2026-05-05 02:17 36.87198 -76.25171 33037 ft 518 kts 66°
2026-05-05 02:17 36.89139 -76.16497 33044 ft 521 kts 79°
2026-05-05 02:18 36.89638 -76.07454 33061 ft 523 kts 89°
2026-05-05 02:18 36.89805 -75.98441 33042 ft 522 kts 88°
2026-05-05 02:19 36.90044 -75.89407 33033 ft 520 kts 88°
2026-05-05 02:19 36.90257 -75.80394 33037 ft 518 kts 88°
2026-05-05 02:20 36.90471 -75.71389 33040 ft 519 kts 88°
2026-05-05 02:20 36.90693 -75.62353 33052 ft 521 kts 88°
2026-05-05 02:21 36.90897 -75.53337 33053 ft 524 kts 89°
2026-05-05 02:21 36.91065 -75.44220 33060 ft 526 kts 89°
2026-05-05 02:22 36.91242 -75.35075 33064 ft 528 kts 88°
2026-05-05 02:22 36.91612 -75.25891 33064 ft 529 kts 87°
2026-05-05 02:23 36.91940 -75.16755 33068 ft 530 kts 89°
2026-05-05 02:23 36.92064 -75.07545 33068 ft 530 kts 89°
2026-05-05 02:24 36.92154 -74.98337 33074 ft 530 kts 90°
2026-05-05 02:24 36.92268 -74.89179 33076 ft 531 kts 89°
2026-05-05 02:25 36.92391 -74.79942 33072 ft 532 kts 89°
2026-05-05 02:25 36.92507 -74.70694 33077 ft 532 kts 89°
2026-05-05 02:26 36.92613 -74.61447 33084 ft 532 kts 90°
2026-05-05 02:26 36.92712 -74.52260 33085 ft 532 kts 90°
2026-05-05 02:27 36.92804 -74.43020 33097 ft 531 kts 89°
2026-05-05 02:27 36.92929 -74.33804 33070 ft 530 kts 89°
2026-05-05 02:28 36.93072 -74.24611 33094 ft 529 kts 89°